EW5134 Weather Reports


Display with metric or nautical units.
time (UTC)temp
F
wind
direction
speed
MPH
gust
MPH
rain 1hr
in
rain 24hr
in
rain mn
in
humidity
%
barometer
mb
20260507010418 42 242 1.0 3.0 0.00 0.00 0.71 96 1012.4
20260507004919 42 258 1.0 3.0 0.00 0.00 0.71 96 1012.3
20260507003420 42 267 1.0 4.0 0.00 0.00 0.71 96 1012.2
20260507002617 42 276 3.0 7.0 0.00 0.00 0.71 96 1011.8
20260507000420 42 266 2.0 7.0 0.00 0.00 0.71 96 1011.6
20260506234915 42 273 2.0 6.0 0.00 0.00 0.71 96 1011.6
20260506233418 42 277 2.0 4.0 0.00 0.00 0.71 96 1011.4
20260506231916 43 277 2.0 4.0 0.00 0.00 0.71 96 1011.1
20260506230418 42 262 1.0 3.0 0.00 0.00 0.71 96 1010.6
20260506224916 43 248 1.0 4.0 0.00 0.00 0.71 96 1010.9
20260506223417 43 320 3.0 8.0 0.00 0.00 0.71 96 1011.0
20260506221916 43 332 4.0 9.0 0.00 0.00 0.71 96 1011.0
20260506221117 42 296 4.0 8.0 0.00 0.00 0.71 97 1011.1
20260506214846 42 344 6.0 9.0 0.00 0.00 0.71 97 1011.0
20260506213347 43 324 5.0 10.0 0.00 0.00 0.71 98 1010.7
20260506212427 42 316 8.0 13.0 0.00 0.00 0.71 97 1010.5
20260506211848 42 306 7.0 13.0 0.00 0.00 0.71 97 1010.7
20260506205545 42 327 6.0 13.0 0.00 0.00 0.71 97 1010.4
20260506204041 42 319 6.0 13.0 0.00 0.00 0.71 97 1010.4
20260506201847 42 332 7.0 14.0 0.00 0.00 0.71 98 1010.1
20260506200348 42 317 9.0 15.0 0.00 0.00 0.71 97 1010.1
20260506194845 43 348 9.0 14.0 0.00 0.00 0.71 97 1010.1
20260506194033 43 324 7.0 8.0 0.00 0.00 0.71 97 1009.9
20260506191737 43 294 8.0 11.0 0.03 0.51 0.71 97 1009.8
20260506190238 43 319 8.0 14.0 0.02 0.50 0.70 97 1009.8
20260506184737 44 313 9.0 12.0 0.01 0.49 0.69 97 1009.8
20260506183238 44 326 8.0 12.0 0.01 0.49 0.69 97 1009.5
20260506181740 44 319 6.0 10.0 0.01 0.48 0.68 97 1009.1
20260506180240 44 317 5.0 9.0 0.01 0.48 0.68 97 1009.1
20260506174737 44 319 4.0 8.0 0.01 0.48 0.68 97 1008.7
20260506173238 44 329 4.0 8.0 0.02 0.48 0.68 97 1008.8
20260506171739 44 329 4.0 8.0 0.02 0.47 0.67 97 1008.7
20260506170240 44 10 3.0 8.0 0.02 0.47 0.67 97 1008.6
20260506164736 44 339 3.0 5.0 0.03 0.47 0.67 97 1008.5
20260506163241 44 328 3.0 6.0 0.02 0.46 0.66 97 1008.7
20260506161738 43 347 3.0 4.0 0.01 0.45 0.65 97 1008.7
20260506160241 43 5 2.0 5.0 0.01 0.45 0.65 97 1008.8
20260506154728 43 50 2.0 4.0 0.01 0.44 0.64 97 1008.9
20260506153231 43 9 2.0 5.0 0.03 0.44 0.64 97 1008.7
20260506151706 43 355 3.0 6.0 0.04 0.44 0.64 97 1008.7
20260506150909 43 53 4.0 7.0 0.06 0.44 0.64 97 1008.3
20260506144708 43 76 2.0 7.0 0.07 0.43 0.63 97 1008.3
20260506143209 43 38 3.0 5.0 0.08 0.41 0.62 97 1008.3
20260506142359 43 5 2.0 5.0 0.10 0.40 0.60 97 1008.4
20260506140208 42 68 4.0 8.0 0.12 0.38 0.58 97 1008.4
20260506134706 42 58 3.0 6.0 0.15 0.36 0.56 97 1008.5
20260506133205 42 5 3.0 9.0 0.15 0.33 0.53 96 1008.7
20260506131703 43 5 3.0 6.0 0.15 0.30 0.50 96 1008.9
20260506130217 43 16 3.0 6.0 0.12 0.25 0.45 97 1008.5
20260506124702 43 46 3.0 8.0 0.11 0.21 0.41 96 1008.4
20260506123203 43 39 4.0 9.0 0.11 0.18 0.38 96 1008.3
20260506121701 43 68 2.0 7.0 0.11 0.15 0.35 96 1008.4
20260506120203 43 35 4.0 10.0 0.13 0.13 0.33 96 1008.5
20260506114700 43 32 4.0 11.0 0.10 0.10 0.30 96 1008.4
20260506113203 43 46 5.0 9.0 0.06 0.06 0.26 96 1008.2
20260506111701 43 54 3.0 6.0 0.04 0.04 0.24 96 1008.5
20260506110158 43 80 3.0 4.0 0.00 0.00 0.20 96 1008.7
20260506104652 43 78 4.0 10.0 0.05 0.22 0.17 96 1008.7
20260506103155 42 79 7.0 13.0 0.05 0.20 0.15 96 1008.5
20260506101652 43 82 7.0 13.0 0.04 0.18 0.13 96 1008.2
20260506100208 42 58 8.0 14.0 0.04 0.17 0.12 96 1008.6
20260506094628 43 74 7.0 14.0 0.05 0.17 0.12 96 1008.7
20260506093129 43 65 6.0 13.0 0.04 0.15 0.10 96 1009.0
20260506092327 44 355 7.0 15.0 0.05 0.14 0.09 96 1009.0
20260506091558 45 64 4.0 12.0 0.05 0.13 0.08 96 1009.3
20260506084628 45 38 6.0 13.0 0.04 0.12 0.07 96 1008.9
20260506083131 45 64 5.0 11.0 0.04 0.11 0.06 96 1008.9
20260506081629 45 16 5.0 9.0 0.02 0.09 0.04 96 1009.0
20260506080142 46 11 4.0 9.0 0.01 0.08 0.03 96 1009.1
20260506073130 47 78 5.0 9.0 0.00 0.07 0.02 97 1008.6
20260506071628 47 117 5.0 9.0 0.00 0.07 0.02 96 1008.7
20260506070821 46 92 3.0 6.0 0.02 0.07 0.02 96 1009.1
20260506062331 46 76 6.0 10.0 0.02 0.07 0.02 96 1009.9
20260506060130 47 267 4.0 10.0 0.00 0.05 0.00 96 1011.3
20260506050127 46 32 2.0 6.0 0.00 0.05 0.00 96 1010.9
20260506044625 46 15 2.0 5.0 0.00 0.05 0.00 96 1010.7
20260506043124 47 56 4.0 8.0 0.01 0.05 0.00 95 1010.7
20260506041622 47 71 3.0 6.0 0.01 0.05 0.00 96 1010.8
20260506040122 47 137 3.0 6.0 0.03 0.05 0.00 96 1011.2
20260506034622 47 126 3.0 6.0 0.03 0.05 0.20 95 1011.1
20260506033122 47 51 3.0 8.0 0.04 0.04 0.19 95 1011.1
20260506031621 47 92 3.0 8.0 0.04 0.04 0.19 95 1011.5
20260506030818 47 88 1.0 6.0 0.02 0.02 0.17 94 1011.4
20260506025314 47 355 3.0 8.0 0.02 0.02 0.17 94 1011.5
20260506023119 47 0 2.0 5.0 0.00 0.00 0.15 93 1011.2
20260506021411 47 317 2.0 6.0 0.00 0.10 0.12 92 1012.1
20260506015913 47 321 2.0 7.0 0.00 0.10 0.12 92 1011.7
20260506015814 47 34 3.0 10.0 0.00 0.10 0.12 90 1010.8
20260506012913 48 9 5.0 12.0 0.00 0.10 0.12 88 1011.0
20260506012108 49 18 5.0 11.0 0.00 0.10 0.12 84 1011.2
20260506011329 51 0 6.0 12.0 0.00 0.10 0.12 82 1010.9